• In Belarus
  • List of Countries
  • For 7 days
  • Water Temperature
  • Satellite Maps
  • Weather Map
  • Weather Widgets
  • user-avatar
    Login

    Hourly Weather Hrazdan

    Today, 16 December, Sunday

    Time Temperature Precipitation Wind Pressure Humidity
    00:00 -3°C° 0 mm 2 mps 615 mmHg 72%
    01:00 -3°C° 0 mm 2 mps 615 mmHg 72%
    02:00 -3°C° 0 mm 2 mps 614 mmHg 73%
    03:00 -5°C° 0 mm 2 mps 614 mmHg 78%
    04:00 -4°C° 0 mm 2 mps 614 mmHg 77%
    05:00 -4°C° 0 mm 2 mps 614 mmHg 77%
    06:00 -4°C° 0 mm 2 mps 614 mmHg 76%
    07:00 -4°C° 0 mm 2 mps 614 mmHg 75%
    08:00 -3°C° 0 mm 2 mps 614 mmHg 74%
    09:00 -2°C° 0 mm 2 mps 614 mmHg 73%
    10:00 -1°C° 0 mm 2 mps 614 mmHg 71%
    11:00 +1°C° 0 mm 2 mps 614 mmHg 69%
    12:00 +2°C° 0 mm 2 mps 614 mmHg 67%
    13:00 +2°C° 0 mm 2 mps 614 mmHg 68%
    14:00 +2°C° 0 mm 2 mps 614 mmHg 68%
    15:00 +2°C° 0 mm 2 mps 614 mmHg 69%
    16:00 +1°C° 0 mm 2 mps 614 mmHg 70%
    17:00 -1°C° 0 mm 2 mps 614 mmHg 70%
    18:00 -2°C° 0 mm 2 mps 614 mmHg 71%
    19:00 -2°C° 0 mm 2 mps 614 mmHg 71%
    20:00 -2°C° 0 mm 2 mps 614 mmHg 70%
    21:00 -2°C° 0 mm 2 mps 614 mmHg 70%
    22:00 -2°C° 0 mm 2 mps 614 mmHg 70%
    23:00 -1°C° 0 mm 1 mps 614 mmHg 71%

    Tomorrow, 17 December, Monday

    Time Temperature Precipitation Wind Pressure Humidity
    00:00 -1°C° 0 mm 1 mps 614 mmHg 71%
    01:00 -1°C° 0 mm 1 mps 614 mmHg 72%
    02:00 -1°C° 0 mm 1 mps 613 mmHg 72%
    03:00 -2°C° 0 mm 1 mps 613 mmHg 72%
    04:00 -2°C° 0 mm 1 mps 613 mmHg 71%
    05:00 -2°C° 0 mm 1 mps 613 mmHg 71%
    06:00 -2°C° 0 mm 1 mps 613 mmHg 71%
    07:00 -1°C° 0 mm 1 mps 613 mmHg 70%
    08:00 -1°C° 0 mm 1 mps 613 mmHg 69%
    09:00 0°C° 0 mm 1 mps 613 mmHg 69%
    10:00 +1°C° 0 mm 1 mps 613 mmHg 68%
    11:00 +1°C° 0 mm 2 mps 613 mmHg 67%
    12:00 +2°C° 0 mm 2 mps 613 mmHg 66%
    13:00 +1°C° 0.1 mm 2 mps 612 mmHg 69%
    14:00 +1°C° 0.1 mm 2 mps 612 mmHg 72%
    15:00 +2°C° 0.1 mm 1 mps 612 mmHg 74%
    16:00 +1°C° 0.1 mm 1 mps 612 mmHg 77%
    17:00 0°C° 0.1 mm 1 mps 612 mmHg 80%
    18:00 0°C° 0.1 mm 1 mps 612 mmHg 83%
    19:00 0°C° 0.3 mm 1 mps 612 mmHg 85%
    20:00 -1°C° 0.3 mm 1 mps 612 mmHg 86%
    21:00 -1°C° 0.3 mm 1 mps 611 mmHg 88%
    22:00 -1°C° 0.4 mm 1 mps 611 mmHg 89%
    23:00 -1°C° 0.4 mm 1 mps 611 mmHg 89%

    Day after tomorrow, 18 December, Tuesday

    Time Temperature Precipitation Wind Pressure Humidity
    00:00 -1°C° 0.4 mm 1 mps 611 mmHg 90%
    01:00 -1°C° 0.4 mm 1 mps 611 mmHg 91%
    02:00 -1°C° 0.4 mm 1 mps 611 mmHg 91%
    03:00 -1°C° 0.4 mm 1 mps 611 mmHg 91%
    04:00 -2°C° 0.3 mm 0 mps 611 mmHg 91%
    05:00 -3°C° 0.3 mm 0 mps 611 mmHg 91%
    06:00 -3°C° 0.3 mm 0 mps 611 mmHg 91%
    07:00 -2°C° 0.2 mm 0 mps 611 mmHg 89%
    08:00 -2°C° 0.2 mm 0 mps 612 mmHg 88%
    09:00 0°C° 0.2 mm 1 mps 612 mmHg 86%
    10:00 0°C° 0.1 mm 1 mps 612 mmHg 85%
    11:00 +1°C° 0.1 mm 1 mps 612 mmHg 83%
    12:00 +1°C° 0.1 mm 1 mps 612 mmHg 82%
    13:00 +1°C° 0.1 mm 1 mps 612 mmHg 81%
    14:00 +1°C° 0.1 mm 1 mps 612 mmHg 81%
    15:00 +1°C° 0.1 mm 1 mps 612 mmHg 81%
    16:00 0°C° 0 mm 1 mps 612 mmHg 82%
    17:00 -1°C° 0 mm 1 mps 612 mmHg 83%
    18:00 -2°C° 0 mm 1 mps 612 mmHg 85%
    19:00 -2°C° 0 mm 1 mps 612 mmHg 84%
    20:00 -2°C° 0 mm 1 mps 613 mmHg 83%
    21:00 -2°C° 0 mm 1 mps 613 mmHg 82%
    22:00 -2°C° 0 mm 1 mps 613 mmHg 82%
    23:00 -2°C° 0 mm 1 mps 613 mmHg 82%

    19 December, Wednesday

    Time Temperature Precipitation Wind Pressure Humidity
    00:00 -2°C° 0 mm 1 mps 613 mmHg 82%
    01:00 -4°C° 0 mm 2 mps 613 mmHg 83%
    02:00 -5°C° 0 mm 2 mps 613 mmHg 83%
    03:00 -5°C° 0 mm 2 mps 613 mmHg 84%
    04:00 -5°C° 0 mm 2 mps 613 mmHg 84%
    05:00 -5°C° 0 mm 2 mps 613 mmHg 84%
    06:00 -5°C° 0 mm 2 mps 613 mmHg 84%
    07:00 -4°C° 0 mm 2 mps 613 mmHg 83%
    08:00 -3°C° 0 mm 2 mps 614 mmHg 82%
    09:00 -3°C° 0 mm 2 mps 614 mmHg 81%
    10:00 -2°C° 0 mm 2 mps 614 mmHg 79%
    11:00 -1°C° 0 mm 2 mps 614 mmHg 78%
    12:00 +1°C° 0 mm 2 mps 614 mmHg 77%
    13:00 +1°C° 0 mm 2 mps 614 mmHg 77%
    14:00 +1°C° 0 mm 2 mps 613 mmHg 78%
    15:00 +1°C° 0 mm 2 mps 613 mmHg 78%
    16:00 -1°C° 0 mm 2 mps 613 mmHg 79%
    17:00 -2°C° 0 mm 2 mps 613 mmHg 81%
    18:00 -3°C° 0 mm 2 mps 613 mmHg 82%
    19:00 -3°C° 0.1 mm 2 mps 613 mmHg 82%
    20:00 -1°C° 0.1 mm 1 mps 613 mmHg 82%
    21:00 0°C° 0.1 mm 1 mps 613 mmHg 82%
    22:00 0°C° 0.2 mm 1 mps 613 mmHg 83%
    23:00 0°C° 0.2 mm 1 mps 613 mmHg 83%

    20 December, Thursday

    Time Temperature Precipitation Wind Pressure Humidity
    00:00 0°C° 0.2 mm 1 mps 613 mmHg 84%
    01:00 0°C° 0.2 mm 1 mps 613 mmHg 85%
    02:00 0°C° 0.2 mm 1 mps 612 mmHg 86%
    03:00 0°C° 0.2 mm 1 mps 612 mmHg 86%
    04:00 0°C° 0.1 mm 1 mps 612 mmHg 87%
    05:00 0°C° 0.1 mm 1 mps 612 mmHg 87%
    06:00 0°C° 0.1 mm 1 mps 612 mmHg 87%
    07:00 0°C° 0.1 mm 1 mps 612 mmHg 86%
    08:00 0°C° 0.1 mm 1 mps 612 mmHg 85%
    09:00 0°C° 0.1 mm 1 mps 612 mmHg 84%
    10:00 +1°C° 0.1 mm 1 mps 612 mmHg 83%
    11:00 +2°C° 0.1 mm 1 mps 612 mmHg 81%
    12:00 +2°C° 0.1 mm 1 mps 612 mmHg 80%
    13:00 +2°C° 0.1 mm 1 mps 611 mmHg 81%
    14:00 +2°C° 0.1 mm 1 mps 611 mmHg 81%
    15:00 +2°C° 0.1 mm 1 mps 611 mmHg 81%
    16:00 +1°C° 0.1 mm 1 mps 611 mmHg 83%
    17:00 0°C° 0.1 mm 1 mps 611 mmHg 85%
    18:00 0°C° 0.1 mm 1 mps 611 mmHg 87%
    19:00 0°C° 0.1 mm 1 mps 611 mmHg 86%
    20:00 -1°C° 0.1 mm 0 mps 611 mmHg 86%
    21:00 -2°C° 0.1 mm 0 mps 611 mmHg 85%
    22:00 -2°C° 0.1 mm 0 mps 611 mmHg 86%
    23:00 -2°C° 0.1 mm 0 mps 611 mmHg 86%

    21 December, Friday

    Time Temperature Precipitation Wind Pressure Humidity
    00:00 -2°C° 0.1 mm 0 mps 611 mmHg 86%
    01:00 -2°C° 0.1 mm 0 mps 611 mmHg 86%
    02:00 -2°C° 0.1 mm 0 mps 611 mmHg 86%
    03:00 -3°C° 0.1 mm 0 mps 612 mmHg 86%
    04:00 -3°C° 0.1 mm 0 mps 612 mmHg 86%
    05:00 -3°C° 0.1 mm 0 mps 612 mmHg 86%
    06:00 -3°C° 0.1 mm 0 mps 612 mmHg 86%
    07:00 -2°C° 0.3 mm 0 mps 612 mmHg 86%
    08:00 -2°C° 0.3 mm 0 mps 612 mmHg 86%
    09:00 -1°C° 0.3 mm 0 mps 613 mmHg 86%
    10:00 0°C° 0.4 mm 1 mps 613 mmHg 84%
    11:00 0°C° 0.4 mm 1 mps 612 mmHg 83%
    12:00 +1°C° 0.4 mm 1 mps 612 mmHg 82%
    13:00 +1°C° 0.2 mm 1 mps 612 mmHg 83%
    14:00 +1°C° 0.2 mm 1 mps 612 mmHg 83%
    15:00 +1°C° 0.2 mm 1 mps 612 mmHg 84%
    16:00 0°C° 0.3 mm 1 mps 612 mmHg 86%
    17:00 0°C° 0.3 mm 1 mps 612 mmHg 88%
    18:00 -2°C° 0.3 mm 0 mps 612 mmHg 90%
    19:00 -2°C° 0.3 mm 0 mps 612 mmHg 89%
    20:00 -2°C° 0.3 mm 0 mps 612 mmHg 89%
    21:00 -1°C° 0.3 mm 1 mps 612 mmHg 89%
    22:00 -3°C° 0.2 mm 0 mps 612 mmHg 89%
    23:00 -3°C° 0.2 mm 0 mps 612 mmHg 88%
    Show more